Location: Leuk
(46.3174°N, 7.6341°E)
Time: 17:30:23
(UTC+00:00)

COSMO-SKYMED 1 - Pass Details

Date: 09 March 2021
Orbit: 621 x 623 km, 97.9° (Epoch: 16 April)

Event Time Altitude Azimuth Distance (km) Brightness Sun altitude
Rises 04:35:01 0° 165° (SSE) 2,892 6.1 -14.4°
Reaches altitude 10° 04:37:12 10° 165° (SSE) 1,990 5.2 -14.0°
Maximum altitude 04:41:32 89° 81° (E) 631 2.6 -13.3°
Drops below altitude 10° 04:45:55 10° 347° (NNW) 2,006 5.1 -12.5°
Sets 04:48:07 0° 347° (NNW) 2,917 6.0 -12.1°
